Location: Aix-en-Ergny
(50.5839°N, 1.9996°E)
Time: 01:48:37
(UTC+00:00)

SJ-12 - Pass Details

Date: 23 October 2019
Orbit: 570 x 585 km, 97.6° (Epoch: 21 November)

Event Time Altitude Azimuth Distance (km) Brightness Sun altitude
Rises 05:48:38 0° 9° (N) 2,799 7.4 -6.8°
Reaches altitude 10° 05:50:50 10° 3° (N) 1,898 6.5 -6.5°
Maximum altitude 05:54:47 47° 290° (WNW) 775 4.2 -5.8°
Drops below altitude 10° 05:58:43 10° 217° (SW) 1,892 6.3 -5.2°
Sets 06:00:55 0° 211° (SSW) 2,789 7.2 -4.9°
